Regional Weather Roundup
Issued by NWS

Home | Current Version | Previous Version | Text Only | Print | Product List | Glossary On
Versions: 1 2 3 4 5 6 7 8 9 10 11 12 13 14 15 16 17 18 19 20 21 22 23 24 25 26 27 28 29 30 31 32 33 34 35 36 37 38 39 40 41 42 43 44 45 46 47 48 49 50
221
ASUS43 KTOP 210208
RWRKS

WEATHER ROUNDUP FOR KANSAS
NATIONAL WEATHER SERVICE GOODLAND KS
900 PM CDT SUN MAY 20 2018

NOTE:  "FAIR" INDICATES FEW OR NO CLOUDS BELOW 12,000 FEET WITH NO
SIGNIFICANT WEATHER AND/OR OBSTRUCTIONS TO VISIBILITY.

KSZ001>006-013>018-027>032-041>047-210300-
NORTHWEST KANSAS

CITY           SKY/WX    TMP DP  RH WIND       PRES   REMARKS
GOODLAND       MOCLDY    55  49  80 E6        30.14S
HAYS           MOCLDY    58  53  84 N8        30.12R
HILL CITY      CLOUDY    58  54  86 N6        30.13S
RUSSELL        CLOUDY    59  57  93 N10       30.10R
$$

KSZ061>065-074>080-084>089-210300-
SOUTHWEST KANSAS

CITY           SKY/WX    TMP DP  RH WIND       PRES   REMARKS
DODGE CITY     CLOUDY    61  50  67 NE7       30.10R
ELKHART        CLEAR     66  49  54 SE7       30.11S
GARDEN CITY    CLEAR     59  49  69 N7        30.11R
GREAT BEND     CLOUDY    60  55  83 N6        30.10R
LIBERAL        CLEAR     67  48  50 E7        30.10R
PRATT          CLEAR     61  53  75 N7        30.07S
$$

KSZ066>073-081>083-090>101-210300-
SOUTHEAST KANSAS

CITY           SKY/WX    TMP DP  RH WIND       PRES   REMARKS
CHANUTE        CLOUDY    65  63  93 NW3       30.03S
COFFEYVILLE    CLOUDY    68  64  87 N10       30.02R
HUTCHINSON     CLOUDY    63  58  83 N5        30.05R
MEDICINE LODGE   N/A     65  57  75 N5          N/A
NEWTON         CLEAR     60  56  86 NE3       30.06S
PARSONS        CLEAR     65  63  93 N3        30.03R
WICHITA INTL   PTCLDY    64  58  80 NE5       30.04S
WICHITA JABRA  CLEAR     60  58  92 N5        30.04F
WICHITA MCCONL CLEAR     61  56  85 E3        30.04F
WINFIELD       PTCLDY    63  59  87 E3        30.05S
$$

KSZ007>012-019>026-033>040-048>060-102>105-210300-
NORTHEAST KANSAS

CITY           SKY/WX    TMP DP  RH WIND       PRES   REMARKS
CONCORDIA      CLOUDY    57  54  89 NW9       30.09R
EMPORIA        CLOUDY    62  58  86 NW5       30.04S
LAWRENCE       CLEAR     64  63  96 N3        30.02S
MANHATTAN      CLOUDY    61  60  97 CALM      30.05S FOG
MARYSVILLE     CLOUDY    55  55 100 N7        30.07R FOG
OLATHE IND     MOCLDY    65  63  93 N6        30.03S
OLATHE EXE     CLOUDY    66  63  90 NW7       30.02R
SALINA         CLOUDY    63  58  83 N8        30.07R
TOPEKA BILLARD CLEAR     65  63  93 CALM      30.02S
TOPEKA FORBES  PTCLDY    64  63  96 NW3       30.03S FOG
$$




USA.gov is the U.S. government's official web portal to all federal, state and local government web resources and services.